Wenatchee, WA
on Friday, December 14, 2012

Friday
Previous Day Next Day
Daily Summary
 ActualAverageRecord
Temperature
Mean Temperature °F 25°F  
Max Temperature 32°F 31°F 58°F (1979)
Min Temperature 23°F 20°F 6°F (1972)
Degree Days
Heating Degree Days 37 40  
Month to date heating degree days 431 537  
Since 1 July heating degree days 2046 2419  
Cooling Degree Days 0 0  
Month to date cooling degree days 0 0  
Year to date cooling degree days 294 249  
Moisture
Dew Point 28°F   
Average Humidity 88    
Maximum Humidity 100    
Minimum Humidity 78    
Precipitation
Precipitation 0.06 in 0.08 in 0.98 in (2006)
Month to date precipitation 1.25 1.16  
Year to date precipitation 21.79 15.71  
Snow
Snow 1.20 in 0.50 in in ()
Month to date snowfall 4.8 6.8  
Since 1 July snowfall 12.0 14.7  
Snow Depth 2.00 in   
Wind
Wind Speed 2 mph   
Max Wind Speed 6 mph   
Max Gust Speed mph   
Visibility 7 miles   
Events Snow   

Key: T is trace of precipitation, MM is missing value
Source: NWS Daily Summary
Time(PST)TemperatureDew PointHumidity Pressure Visibility Wind DirectionWind SpeedGust SpeedPrecipitationEvents Conditions
12:55 AM 30.9°F 28.0°F 89% 29.86 in 7.0 miles SE 4.6 mph - 0.00 in Snow Light Snow
1:55 AM 30.0°F 28.0°F 92% 29.84 in 3.0 miles SE 4.6 mph - 0.00 in Snow Light Snow
2:03 AM 30.2°F 28.4°F 93% 29.81 in 4.0 miles ESE 3.5 mph - 0.00 in Snow Light Snow
3:16 AM 30.2°F 28.4°F 93% 29.79 in 5.0 miles Calm Calm - 0.00 in   Overcast
3:26 AM 30.2°F 28.4°F 93% 29.79 in 6.0 miles Calm Calm - 0.00 in   Overcast
3:55 AM 30.0°F 28.0°F 92% 29.82 in 6.0 miles Calm Calm - 0.00 in   Overcast
4:02 AM 30.2°F 28.4°F 93% 29.78 in 5.0 miles Calm Calm - 0.00 in Snow Light Snow
4:33 AM 30.2°F 28.4°F 93% 29.77 in 4.0 miles Calm Calm - 0.00 in Snow Light Snow
4:50 AM 30.2°F 28.4°F 93% 29.77 in 5.0 miles Calm Calm - 0.00 in Snow Light Snow
4:55 AM 30.0°F 28.0°F 92% 29.81 in 5.0 miles Calm Calm - 0.00 in Snow Light Snow
5:11 AM 30.2°F 28.4°F 93% 29.77 in 5.0 miles Calm Calm - 0.00 in Snow Light Snow
5:18 AM 30.2°F 28.4°F 93% 29.77 in 6.0 miles Calm Calm - 0.00 in Snow Light Snow
5:55 AM 30.0°F 27.0°F 88% 29.81 in 5.0 miles Calm Calm - 0.00 in Snow Light Snow
6:19 AM 30.2°F 28.4°F 93% 29.77 in 6.0 miles Calm Calm - 0.00 in   Overcast
6:43 AM 30.2°F 26.6°F 86% 29.77 in 3.0 miles Calm Calm - 0.00 in Snow Light Snow
6:55 AM 30.0°F 27.0°F 88% 29.81 in 3.0 miles Calm Calm - 0.00 in Snow Light Snow
7:55 AM 28.9°F 27.0°F 92% 29.81 in 3.0 miles Calm Calm - 0.00 in   Overcast
8:02 AM 28.4°F 28.4°F 100% 29.78 in 3.0 miles Calm Calm - N/A   Overcast
8:55 AM 30.9°F 28.0°F 89% 29.83 in 10.0 miles Calm Calm - N/A   Overcast
9:55 AM 30.9°F 28.0°F 89% 29.84 in 10.0 miles Calm Calm - N/A   Overcast
10:03 AM 30.2°F 28.4°F 93% 29.80 in 10.0 miles Calm Calm - N/A   Overcast
10:14 AM 30.2°F 28.4°F 93% 29.80 in 10.0 miles Calm Calm - N/A   Overcast
10:55 AM 30.9°F 28.0°F 89% 29.84 in 9.0 miles Calm Calm - N/A   Overcast
11:55 AM 32.0°F 27.0°F 82% 29.83 in 10.0 miles Calm Calm - N/A   Overcast
12:55 PM 32.0°F 26.1°F 79% 29.84 in 10.0 miles WSW 3.5 mph - N/A   Overcast
1:36 PM 33.8°F 28.4°F 81% 29.80 in 10.0 miles SSW 3.5 mph - N/A   Overcast
1:48 PM 33.8°F 28.4°F 81% 29.81 in 10.0 miles SW 4.6 mph - N/A   Overcast
2:16 PM 33.8°F 28.4°F 81% 29.82 in 10.0 miles SW 4.6 mph - N/A   Overcast
2:55 PM 33.1°F 28.0°F 82% 29.86 in 10.0 miles SW 3.5 mph - N/A   Overcast
3:55 PM 33.1°F 27.0°F 78% 29.90 in 10.0 miles West 3.5 mph - N/A   Overcast
4:55 PM 32.0°F 28.0°F 85% 29.91 in 10.0 miles WSW 3.5 mph - N/A   Overcast
5:55 PM 33.1°F 28.0°F 82% 29.92 in 10.0 miles Calm Calm - N/A   Overcast
6:17 PM 32.0°F 26.6°F 80% 29.89 in 10.0 miles NNW 3.5 mph - N/A   Overcast
6:55 PM 32.0°F 27.0°F 82% 29.93 in 10.0 miles Calm Calm - N/A   Overcast
7:55 PM 30.9°F 27.0°F 85% 29.95 in 10.0 miles WNW 4.6 mph - N/A   Partly Cloudy
8:55 PM 30.0°F 26.1°F 85% 29.95 in 10.0 miles North 4.6 mph - N/A   Clear
10:55 PM 28.9°F 25.0°F 85% 29.96 in 10.0 miles Calm Calm - N/A   Clear
11:55 PM 28.0°F 25.0°F 88% 29.96 in 10.0 miles ENE 5.8 mph - N/A   Scattered Clouds
Moon Phase
Dec. 14 Dec. 20 Dec. 28 Jan. 04 Jan. 11
Sunrise:07:41 AM (PST) Moon Rise:08:46 AM (PST)12/14
Sunset:04:10 PM (PST) Moon Set:06:14 PM (PST)12/14

Copyright © 2014 The Weather Underground, Inc.